TIME,DELAY(SENSOR),PRES,OXYGEN,RAWTEMP,T(OPTODE),TCPHASE,FLUOR,BETA(BETA700),BETA(BETA412),BETA(BETA440),CDOM,C(CSC),ED(ED412.40),ED(ED444.00),ED(ED489.70),ED(ED554.30),LU(LU411.80),LU(LU443.40),LU(LU489.60),LU(LU554.10),COMP,TILTX,TILTY,CHECK
1342582516,5809,876.1199951171875000,43.0466194152832000,660.3491210937500000,4.6164798736572270,54.5501213073730500,54,100,86,80,82,15380,2147759451,2147422299,2148007862,2147874459,2147639981,2147064109,2148256932,2147198518,1765,5,14,1333
1342586112,5806,960.7199707031250000,47.1023902893066400,669.7675781250000000,4.3058738708496090,54.0738792419433600,52,100,90,81,82,15381,2147764937,2147420004,2148009014,2147874578,2147643254,2147061705,2148253184,2147199085,1127,4,13,26718
1342589712,5808,973.0599975585938000,48.6307601928710940,671.9061279296875000,4.2352099418640140,53.8870086669921900,53,100,89,80,82,15379,2147761472,2147421193,2148006948,2147873856,2147642139,2147057965,2148262445,2147197613,24,5,13,57926
1342593312,5811,983.4600219726562000,47.8896217346191400,672.0399169921875000,4.2307910919189450,53.9887809753418000,53,97,88,78,82,15382,2147761216,2147422281,2148007003,2147873819,2147644352,2147058642,2148258048,2147199250,170,5,13,291
1342596912,5807,977.7800292968750000,48.1946105957031250,673.6925048828125000,4.1761422157287600,53.9698104858398440,53,100,92,79,81,15382,2147760292,2147419254,2148006390,2147876443,2147644315,2147058870,2148258029,2147199149,612,5,13,63026
1342600512,5806,986.9500122070312000,48.2050209045410160,674.0540161132812000,4.1641860008239750,53.9676094055175800,52,97,88,78,81,15369,2147759899,2147420937,2148007872,2147876022,2147645028,2147058779,2148255707,2147197924,3245,4,13,4098
1342604112,5808,988.7700195312500000,48.2644004821777340,674.3527221679688000,4.1543030738830570,53.9664993286132800,53,98,90,80,82,15373,2147761408,2147420827,2148003840,2147876205,2147644891,2147063515,2148261833,2147200109,3552,4,13,19359
1342607712,5808,988.0700073242188000,48.1404991149902340,674.2523803710938000,4.1576209068298340,53.9842109680175800,52,101,90,78,81,15378,2147763200,2147417490,2148008292,2147878308,2147645211,2147061147,2148255140,2147198189,380,4,13,23070
1342611312,5808,988.8099975585938000,48.0510292053222660,674.0944213867188000,4.1628479957580570,53.9938316345214840,53,98,87,79,82,15382,2147760685,2147419190,2148008457,2147876324,2147642651,2147063789,2148259172,2147199981,166,5,13,53429
1342614912,5809,996.5300292968750000,47.4964294433593750,673.1859741210938000,4.1928939819335940,54.0584297180175800,52,98,91,78,82,15379,2147760182,2147423442,2148009353,2147872566,2147642678,2147059867,2148258386,2147199314,3584,4,13,37855
1342618512,5811,998.0599975585938000,47.1057815551757800,672.9379882812500000,4.2010941505432130,54.1125602722168000,52,98,85,79,83,15377,2147762285,2147422500,2148007360,2147875794,2147643099,2147054893,2148257161,2147200914,110,5,13,25689
1342622112,5811,996.5700073242188000,47.1520690917968750,673.3967285156250000,4.1859278678894040,54.1095008850097660,52,98,87,79,82,15376,2147760630,2147419328,2148007616,2147876900,2147642468,2147054244,2148258130,2147198235,719,4,13,11873
1342625712,5810,999.8400268554688000,47.2610893249511700,673.2128295898438000,4.1920070648193360,54.0936317443847660,53,99,87,78,82,15366,2147762569,2147423680,2148005074,2147876150,2147643117,2147061421,2148260598,2147195200,393,5,13,51579
1342629312,5811,1001.5499877929688000,46.9475212097168000,672.7644042968750000,4.2068347930908200,54.1304397583007800,52,101,88,79,82,15368,2147759579,2147417673,2148006180,2147876397,2147641801,2147058934,2148258660,2147197202,3538,5,13,54873
1342632912,5808,993.7399902343750000,46.9184494018554700,672.8201293945312000,4.2049942016601560,54.1388587951660160,52,100,86,77,82,15363,2147762550,2147421485,2148005476,2147876150,2147642322,2147056722,2148257380,2147199616,3056,5,13,4654
1342636512,5806,992.2999877929688000,47.7584991455078100,674.2069702148438000,4.1591219902038570,54.0376510620117200,52,99,88,79,82,15366,2147758793,2147420717,2148008749,2147873444,2147645403,2147055058,2148258240,2147199579,3372,4,13,45121
1342640112,5809,991.6199951171875000,48.0808296203613300,675.3364868164062000,4.1217517852783200,54.0033912658691400,52,100,89,79,82,15363,2147760941,2147425005,2148009618,2147878226,2147644498,2147061421,2148260251,2147199067,3191,5,13,4980
1342643712,5807,994.8900146484375000,48.0463409423828100,674.9379272460938000,4.1349430084228520,54.0057716369628900,53,98,91,78,82,15362,2147760576,2147422756,2148004370,2147879899,2147643465,2147059236,2148258349,2147198043,192,5,13,42020
1342647312,5808,989.9099731445312000,48.1483192443847660,675.6829223632812000,4.1102871894836430,53.9996910095214840,53,99,88,80,81,15360,2147760137,2147421842,2148010368,2147873408,2147642176,2147057993,2148258953,2147199670,2835,5,13,36104
1342650912,5808,993.0100097656250000,48.1958808898925800,675.8021850585938000,4.1063370704650880,53.9924201965332000,53,97,90,79,82,15356,2147762432,2147419081,2148007113,2147875638,2147644306,2147059520,2148255963,2147199798,3263,4,13,41239
1342654512,5810,1007.9000244140625000,47.6704902648925800,673.5687866210938000,4.1802330017089840,54.0385017395019500,52,103,88,79,82,15358,2147760027,2147421312,2148006784,2147876370,2147642422,2147058633,2148262656,2147200210,3524,4,13,36945
1342658112,5810,1014.1400146484375000,46.9820594787597660,672.1981201171875000,4.2255592346191410,54.1224288940429700,52,98,86,78,81,15358,2147759140,2147420909,2148010038,2147878253,2147642505,2147054838,2148253632,2147202066,600,5,13,17339
1342661712,5811,1005.1599731445312000,46.8394317626953100,672.0363769531250000,4.2309041023254395,54.1342506408691400,52,98,89,80,82,15361,2147763355,2147420763,2148010139,2147877174,2147647670,2147058788,2148254299,2147200320,3388,4,13,40823
1342665312,5811,995.4699707031250000,46.8182106018066400,673.2443237304688000,4.1909661293029785,54.1569099426269500,52,98,88,79,82,15360,2147761280,2147422838,2148004726,2147876900,2147643693,2147059218,2148257453,2147199524,558,5,13,60075
1342668912,5809,1005.9899902343750000,47.2557106018066400,673.0648193359375000,4.1969008445739750,54.0882682800293000,52,103,88,79,82,15356,2147763163,2147421110,2148008384,2147877412,2147641508,2147057398,2148257664,2147200100,113,5,13,41978
1342672512,5808,996.1500244140625000,47.2838592529296900,674.3168945312500000,4.1554870605468750,54.1024894714355500,52,98,92,79,83,15360,2147760768,2147423085,2148008822,2147877787,2147641718,2147057280,2148258505,2147196608,370,5,13,23430
1342676112,5813,1004.7999877929688000,46.8730392456054700,673.9412841796875000,4.1679120063781740,54.1599693298339840,52,98,88,79,82,15356,2147760502,2147419510,2148006838,2147876214,2147640512,2147063753,2148258541,2147201974,3394,5,13,20560
1342679712,5806,1006.7100219726562000,47.1166000366210940,674.2849731445312000,4.1565442085266110,54.1263389587402340,53,100,91,78,82,15357,2147760850,2147422912,2148010660,2147876818,2147643968,2147055149,2148259940,2147200502,506,5,13,34621
1342683312,5809,996.8499755859375000,47.4062500000000000,675.0938720703125000,4.1297798156738280,54.0969886779785160,53,98,93,79,82,15356,2147761334,2147422601,2148010587,2147873398,2147642432,2147059574,2148262427,2147199323,2393,4,13,6721
1342686912,5807,996.4000244140625000,48.0182304382324200,675.8654785156250000,4.1042442321777340,54.0199394226074200,53,100,86,80,82,15357,2147759030,2147420736,2148008082,2147873097,2147645284,2147053238,2148259648,2147199387,3406,4,13,3266
1342690512,5810,996.4099731445312000,48.3425712585449200,676.7684936523438000,4.0743479728698730,53.9847412109375000,52,99,90,79,82,15356,2147760493,2147421321,2148009764,2147876909,2147642797,2147055158,2148258779,2147204196,92,5,13,1016
1342694112,5806,999.6900024414062000,48.3062515258789060,676.0839233398438000,4.0970120429992680,53.9801597595214840,52,99,90,80,82,15346,2147761746,2147422665,2148008246,2147873965,2147643364,2147055195,2148256018,2147201517,544,5,13,8893
1342697712,5810,1001.7100219726562000,47.6816902160644500,675.0153198242188000,4.1323809623718260,54.0577888488769500,52,97,89,78,83,15352,2147758016,2147422802,2148006427,2147874998,2147642861,2147061522,2148255085,2147198912,148,5,13,25195
1342701312,5808,1004.4400024414062000,47.4453697204589840,674.2421875000000000,4.1579589843750000,54.0773582458496100,53,98,91,79,82,15359,2147757165,2147422244,2148008118,2147875812,2147642221,2147056548,2148251867,2147198838,3511,4,13,58312
1342704912,5808,1009.4199829101562000,47.0610313415527340,673.6774291992188000,4.1766409873962400,54.1281700134277340,51,98,89,78,81,15344,2147759104,2147420150,2148007689,2147876781,2147646491,2147060141,2148257078,2147200841,242,5,13,29524
1342708512,5806,1004.7700195312500000,47.0368995666503900,673.6597290039062000,4.1772270202636720,54.1326789855957000,53,100,92,79,82,15349,2147757184,2147422994,2148009746,2147877997,2147646317,2147061147,2148260297,2147200301,3423,4,13,55740
1342712112,5812,1008.5300292968750000,47.2183113098144500,674.2365722656250000,4.1581459045410160,54.1148490905761700,52,99,87,79,81,15349,2147760091,2147422637,2148005412,2147878765,2147641517,2147062473,2148259794,2147202112,36,5,13,5337
1342715712,5811,1008.3400268554688000,47.2318801879882800,673.6309814453125000,4.1781749725341800,54.1009101867675800,53,99,89,78,83,15349,2147759588,2147423232,2148008960,2147875693,2147642157,2147058450,2148260589,2147198217,3555,4,13,11028
1342719312,5807,1008.5700073242188000,47.4733810424804700,673.7822875976562000,4.1731739044189450,54.0701904296875000,53,99,88,79,81,15351,2147757165,2147419776,2148008484,2147877906,2147643474,2147060489,2148257334,2147199250,189,5,13,32381
1342722912,5810,1005.7399902343750000,47.4213600158691400,674.2614135742188000,4.1573238372802730,54.0811691284179700,53,101,91,80,83,15351,2147761709,2147424246,2148008896,2147877083,2147642861,2147056603,2148254555,2147200210,142,5,13,57273
1342726512,5808,998.0700073242188000,47.0502090454101560,675.6311035156250000,4.1119999885559080,54.1548995971679700,52,98,89,79,83,15349,2147759021,2147420717,2148005833,2147875099,2147644909,2147067200,2148258514,2147195401,294,5,13,17049
1342727456,5809,997.0399780273438000,47.4380798339843750,676.0811767578125000,4.0971031188964840,54.1015205383300800,52,97,88,79,82,15376,2147761618,2147422838,2148008310,2147874514,2147643236,2147059410,2148260571,2147198582,3487,5,13,59163
